Hourly Data Report for September 26, 2001

SHERBROOKE A
QUEBEC

45°26'00.000" N
71°41'00.000" W
241.40 m
7028124
71610
YSC

Download Data

Hourly Data (September 2001)
Hourly Data Report for September 26, 2001
TIME
LST
Temp Definition
°C
Dew Point Definition
°C
Rel Hum Definition
%
Precip. Amount Definition
mm

Wind Dir Definition
10's deg

Wind Spd Definition
km/h
Visibility Definition
km
Stn Press Definition
kPa
Hmdx Definition


Wind Chill Definition


Weather Definition


00:00 14.6 14.2 97     0 1.6 98.11      
01:00 14.9 14.4 97     0 4.8 98.11      
02:00 15.8 15.2 96   30 11 9.7 98.14      
03:00 13.9 12.9 94   29 13 15.0 98.21      
04:00 13.1 12.5 96   25 19 2.9 98.26     Drizzle
05:00 12.6 11.9 95   26 9 15.0 98.28      
06:00 12.3 11.6 95   27 6 15.0 98.30      
07:00 12.2 11.3 94   26 6 24.1 98.29     Cloudy
08:00 12.4 11.3 93   26 6 24.1 98.32     Cloudy
09:00 12.8 11.0 89   26 7 24.1 98.33     Cloudy
10:00 13.9 11.6 86   27 7 24.1 98.32     Cloudy
11:00 13.9 11.6 86   28 7 24.1 98.29     Cloudy
12:00 14.9 11.0 77   27 6 24.1 98.24     Cloudy
13:00 15.2 11.1 76   30 6 24.1 98.19     Cloudy
14:00 15.8 11.0 73   21 4 24.1 98.14     Mostly Cloudy
15:00 17.5 12.1 71   4 4 24.1 98.10     Mostly Cloudy
16:00 16.9 10.8 67     0 24.1 98.08     Mainly Clear
17:00 15.3 11.9 80     0 15.0 98.10      
18:00 12.4 11.0 91   34 6 15.0 98.13      
19:00 12.3 10.5 89   33 6 15.0 98.16      
20:00 9.6 8.7 94     0 15.0 98.17      
21:00 10.7 10.3 97   24 7 12.9 98.18      
22:00 11.4 10.3 93   25 11 11.3 98.24      
23:00 10.9 8.3 84   27 11 15.0 98.25      

Notes on Data Quality.

Legend

  • E = Estimated
  • M = Missing
  • NA = Not Available*
  • [empty] = Indicates an unobserved value
Date modified: